Regional Weather Roundup
Issued by NWS Columbia, SC

Home | Current Version | Previous Version | Text Only | Print | Product List | Glossary On
Versions: 1 2 3 4 5 6 7 8 9 10 11 12 13 14 15 16 17 18 19 20 21 22 23 24 25 26 27 28 29 30 31 32 33 34 35 36 37 38 39 40 41 42 43 44 45 46 47 48 49 50
038
ASUS42 KCAE 092110
RWRCAE
REGIONAL WEATHER ROUNDUP
NATIONAL WEATHER SERVICE COLUMBIA SC
400 PM EST TUE FEB 09 2016

NOTE: "FAIR" INDICATES FEW OR NO CLOUDS BELOW 12,000 FEET WITH NO
SIGNIFICANT WEATHER AND/OR OBSTRUCTIONS TO VISIBILITY.

NOT ALL STATIONS ARE QUALITY CONTROLLED BY THE NATIONAL
WEATHER SERVICE. USE DATA WITH CAUTION...ESPECIALLY
DEWPOINT OBSERVATIONS.

SCZ001>056-GAZ040-063>065-077-092200-
...UPSTATE SOUTH CAROLINA...

CITY           SKY/WX    TMP DP  RH WIND       PRES   REMARKS
ANDERSON       CLOUDY    36  18  48 W13G22    29.78R WCI  27
LIBERTY        CLOUDY    37  14  38 W16G25    29.75R WCI  28
SPARTANBURG    CLOUDY    37  12  35 W12G22    29.74R WCI  30
CLEMSON        CLOUDY    37  16  42 NW10G22   29.78R WCI  30
GREENVILLE     CLOUDY    37  13  37 W15       29.75R WCI  28
GREENWOOD      CLOUDY    38  21  50 SW12G22   29.80R WCI  30
GREER          CLOUDY    40  16  37 W15G22    29.73R WCI  32
ROCK HILL      CLOUDY    38  14  37 W10G21    29.72R WCI  31
LAURENS        CLOUDY    37  21  52 W12G25    29.76R WCI  30


...CENTRAL SOUTH CAROLINA...

CITY           SKY/WX    TMP DP  RH WIND       PRES   REMARKS
COLUMBIA APT   FLURRIES  40  23  50 W15       29.79R WCI  32
COLUMBIA OWENS CLOUDY    41  23  48 SW17G26   29.80R
MCENTIRE ANGB  PTSUNNY   40  23  50 W13G22    29.78R WCI  32
ORANGEBURG     CLOUDY    40  23  50 W16G24    29.80R WCI  31
SUMTER SHAW    CLOUDY    41  22  47 W18G25    29.75R
NEWBERRY       CLOUDY    37  23  56 W14G22    29.81R WCI  29
AIKEN          CLOUDY    36  21  55 W10G18    29.83R WCI  28
BARNWELL       CLOUDY    41  23  48 W9G20     29.83R
MANNING        CLOUDY    41  23  48 W7G20     29.78R
CAMDEN           N/A     39  39 100 W18G24    29.76R WCI  30
LANCASTER      MOCLDY    39  14  35 W17       29.73R WCI  30
WINNSBORO      PTCLDY    37  23  56 W13G18    29.75R WCI  29


...EASTERN AND COASTAL SOUTH CAROLINA...

CITY           SKY/WX    TMP DP  RH WIND       PRES   REMARKS
MYRTLE BEACH   PTSUNNY   45  23  42 W17G24    29.75R
N MYRTLE BCH   CLOUDY    45  25  45 W10G23    29.73R
CONWAY         CLOUDY    43  27  52 W8G20     29.75R HAZE
MARION         CLOUDY    41  25  52 W23G35    29.75R
HARTSVILLE     FAIR      41  23  48 W10G17    29.73R
FLORENCE       CLOUDY    41  23  48 W17G28    29.75R
DARLINGTON     CLOUDY    43  21  42 W17G23    29.75R
CHARLESTON APT PTSUNNY   45  22  40 W16G29    29.80R
MOUNT PLEASANT CLOUDY    45  28  53 W9G17     29.79R
WALTERBORO     CLOUDY    43  23  45 W17G26    29.83R
BEAUFORT       PTSUNNY   45  22  40 W17G28    29.83R


...EASTERN GEORGIA...

CITY           SKY/WX    TMP DP  RH WIND       PRES   REMARKS
AUGUSTA BUSH F CLOUDY    40  20  44 W16G23    29.84R WCI  31
AUGUSTA DANIEL CLOUDY    39  19  44 VRB5      29.83R
THOMSON        CLOUDY    40  25  54 W8G20     29.87R WCI  35
WASHINGTON     FAIR      41  32  70 W15G23    29.83R
CLAXTON        CLOUDY    47  28  46 W20       29.84S
SYLVANIA       CLOUDY    44  27  50 NW13G18   29.84S
STATESBORO     CLOUDY    47  16  29 NW17      29.85R
SAVANNAH       PTSUNNY   48  22  35 NW17      29.84R


...SOUTHERN NORTH CAROLINA...

CITY           SKY/WX    TMP DP  RH WIND       PRES   REMARKS
CHARLOTTE      CLOUDY    38  14  37 W15G23    29.72R WCI  29
MONROE         CLOUDY    38  16  40 W17G26    29.70R WCI  28
WADESBORO      CLOUDY    40  17  38 W6        29.72R
ROCKINGHAM     CLOUDY    40  21  46 W10       29.71R WCI  33
RUTHERFORDTON  CLOUDY    33  10  39 NW15G24   29.74R WCI  22
ASHEVILLE      CLOUDY    28  11  48 N9G18     29.70R WCI  19

$$




USA.gov is the U.S. government's official web portal to all federal, state and local government web resources and services.